Weather History for KFMH - November, 2012

Change the Weather History Date:

Thursday, November 29, 2012

  Actual Average Record
Temperature  
Mean Temperature 34 °F -  
Max Temperature 43 °F 45 °F 68 °F (2011)
Min Temperature 26 °F 30 °F 19 °F (2014)
Degree Days  
Heating Degree Days 30    
Moisture  
Dew Point 25 °F    
Average Humidity 66    
Maximum Humidity 86    
Minimum Humidity 49    
Precipitation  
Precipitation 0.00 in - - ()
Sea Level Pressure  
Sea Level Pressure 30.22 in    
Wind  
Wind Speed 10 mph (West)    
Max Wind Speed 18 mph    
Max Gust Speed 24 mph    
Visibility 10 miles    
Events      
Averages and records for this station are not official NWS values.
T = Trace of Precipitation, MM = Missing Value Source: NWS Daily Summary

Daily Weather History Graph

Daily Weather History Graph

Search for Another Location

Airport or City:

Trip Planner

Search our weather history database for the weather conditions in past years. The results will help you decide how hot, cold, wet, or windy it might be!

Date:

Astronomy

Nov. 29, 2012 Rise Set
Actual Time 6:47 AM EST 4:13 PM EST
Civil Twilight 6:17 AM EST 4:43 PM EST
Nautical Twilight 5:42 AM EST 5:18 PM EST
Astronomical Twilight 5:09 AM EST 5:51 PM EST
Moon 5:13 PM EST (11/29) 7:32 AM EST (11/29)
Length of Visible Light 10h 26m
Length of Day
9h 25m
Full, 99% of the Moon is Illuminated
Nov 29
Full
Dec 6
Last Quarter
Dec 13
New
Dec 20
First Quarter
Dec 28
Full

Hourly Weather History & Observations

Time (EST) Temp. Windchill Dew Point Humidity Pressure Visibility Wind Dir Wind Speed Gust Speed Precip Events Conditions
12:15 AM 28.4 °F 23.3 °F 24.8 °F 86% 30.17 in 10.0 mi WNW 4.6 mph - N/A   Clear
12:35 AM 26.6 °F 20.0 °F 23.0 °F 86% 30.17 in 10.0 mi WNW 5.8 mph - N/A   Clear
12:55 AM 26.6 °F 20.0 °F 23.0 °F 86% 30.17 in 10.0 mi WNW 5.8 mph - N/A   Clear
1:15 AM 26.6 °F 19.1 °F 23.0 °F 86% 30.18 in 10.0 mi WNW 6.9 mph - N/A   Clear
1:35 AM 28.4 °F 20.4 °F 23.0 °F 80% 30.18 in 10.0 mi WNW 8.1 mph - N/A   Clear
1:55 AM 30.2 °F 21.9 °F 24.8 °F 80% 30.19 in 10.0 mi WNW 9.2 mph - N/A   Clear
2:15 AM 30.2 °F 21.9 °F 24.8 °F 80% 30.19 in 10.0 mi WNW 9.2 mph - N/A   Clear
2:35 AM 30.2 °F 22.6 °F 24.8 °F 80% 30.20 in 10.0 mi WNW 8.1 mph - N/A   Clear
2:55 AM 28.4 °F 20.4 °F 23.0 °F 80% 30.20 in 10.0 mi WNW 8.1 mph - N/A   Clear
3:15 AM 28.4 °F 20.4 °F 24.8 °F 86% 30.20 in 10.0 mi NW 8.1 mph - N/A   Clear
3:35 AM 30.2 °F 21.9 °F 24.8 °F 80% 30.19 in 10.0 mi WNW 9.2 mph - N/A   Clear
3:55 AM 30.2 °F 21.9 °F 24.8 °F 80% 30.20 in 10.0 mi WNW 9.2 mph - N/A   Clear
4:15 AM 30.2 °F 21.9 °F 24.8 °F 80% 30.20 in 10.0 mi West 9.2 mph - N/A   Clear
4:35 AM 30.2 °F 21.9 °F 24.8 °F 80% 30.20 in 10.0 mi WNW 9.2 mph - N/A   Clear
4:55 AM 30.2 °F 22.6 °F 24.8 °F 80% 30.21 in 10.0 mi WNW 8.1 mph - N/A   Clear
5:15 AM 28.4 °F 20.4 °F 24.8 °F 86% 30.21 in 10.0 mi WNW 8.1 mph - N/A   Clear
5:35 AM 28.4 °F 22.2 °F 23.0 °F 80% 30.22 in 10.0 mi WNW 5.8 mph - N/A   Clear
5:55 AM 28.4 °F 22.2 °F 23.0 °F 80% 30.21 in 10.0 mi WNW 5.8 mph - N/A   Clear
6:15 AM 28.4 °F 20.4 °F 23.0 °F 80% 30.22 in 10.0 mi WNW 8.1 mph - N/A   Clear
6:35 AM 28.4 °F 21.2 °F 23.0 °F 80% 30.23 in 10.0 mi WNW 6.9 mph - N/A   Clear
6:55 AM 28.4 °F 23.3 °F 23.0 °F 80% 30.23 in 10.0 mi WNW 4.6 mph - N/A   Clear
7:15 AM 28.4 °F 20.4 °F 24.8 °F 86% 30.24 in 10.0 mi WNW 8.1 mph - N/A   Clear
7:35 AM 32.0 °F 24.8 °F 24.8 °F 75% 30.25 in 10.0 mi WNW 8.1 mph - N/A   Clear
7:55 AM 32.0 °F 24.8 °F 24.8 °F 75% 30.26 in 10.0 mi WNW 8.1 mph - N/A   Clear
8:15 AM 32.0 °F 24.8 °F 24.8 °F 75% 30.26 in 10.0 mi WNW 8.1 mph - N/A   Clear
8:35 AM 33.8 °F 24.8 °F 26.6 °F 75% 30.27 in 10.0 mi WNW 12.7 mph - N/A   Clear
8:55 AM 35.6 °F 27.5 °F 26.6 °F 70% 30.28 in 10.0 mi WNW 11.5 mph - N/A   Clear
9:15 AM 35.6 °F 28.6 °F 26.6 °F 70% 30.28 in 10.0 mi WNW 9.2 mph - N/A   Clear
9:35 AM 35.6 °F 29.2 °F 26.6 °F 70% 30.28 in 10.0 mi WNW 8.1 mph - N/A   Clear
9:55 AM 37.4 °F 30.3 °F 26.6 °F 65% 30.28 in 9.0 mi WNW 10.4 mph - N/A   Clear
10:15 AM 37.4 °F 29.3 °F 24.8 °F 60% 30.28 in 10.0 mi WNW 12.7 mph - N/A   Clear
10:35 AM 39.2 °F 31.2 °F 24.8 °F 56% 30.27 in 10.0 mi NW 13.8 mph - N/A   Clear
10:55 AM 39.2 °F 32.0 °F 24.8 °F 56% 30.26 in 10.0 mi WNW 11.5 mph - N/A   Clear
11:35 AM 39.2 °F 32.0 °F 23.0 °F 52% 30.25 in 10.0 mi West 11.5 mph 20.7 mph N/A   Unknown
11:55 AM 39.2 °F 32.5 °F 23.0 °F 52% 30.23 in 10.0 mi WNW 10.4 mph - N/A   Unknown
12:15 PM 41.0 °F 34.7 °F 24.8 °F 53% 30.23 in 10.0 mi West 10.4 mph 20.7 mph N/A   Unknown
12:35 PM 41.0 °F 33.9 °F 23.0 °F 49% 30.23 in 10.0 mi WNW 12.7 mph - N/A   Unknown
12:55 PM 41.0 °F 33.9 °F 23.0 °F 49% 30.22 in 10.0 mi West 12.7 mph - N/A   Unknown
1:15 PM 41.0 °F 33.9 °F 23.0 °F 49% 30.21 in 10.0 mi West 12.7 mph - N/A   Unknown
1:35 PM 41.0 °F 32.8 °F 24.8 °F 53% 30.20 in 10.0 mi West 16.1 mph 19.6 mph N/A   Unknown
1:55 PM 39.2 °F 30.2 °F 24.8 °F 56% 30.20 in 10.0 mi WSW 17.3 mph 23.0 mph N/A   Unknown
2:15 PM 41.0 °F 32.5 °F 24.8 °F 53% 30.20 in 10.0 mi West 17.3 mph 20.7 mph N/A   Unknown
2:35 PM 41.0 °F 32.5 °F 23.0 °F 49% 30.20 in 10.0 mi West 17.3 mph 23.0 mph N/A   Unknown
2:55 PM 39.2 °F 30.8 °F 24.8 °F 56% 30.20 in 10.0 mi WSW 15.0 mph 21.9 mph N/A   Unknown
3:15 PM 39.2 °F 30.2 °F 23.0 °F 52% 30.20 in 10.0 mi WSW 17.3 mph - N/A   Unknown
3:35 PM 39.2 °F 32.5 °F 24.8 °F 56% 30.21 in 10.0 mi WSW 10.4 mph - N/A   Unknown
3:55 PM 39.2 °F 32.0 °F 24.8 °F 56% 30.20 in 10.0 mi WSW 11.5 mph - N/A   Unknown
4:15 PM 37.4 °F 29.8 °F 24.8 °F 60% 30.20 in 10.0 mi WSW 11.5 mph - N/A   Unknown
4:35 PM 37.4 °F 28.9 °F 24.8 °F 60% 30.19 in 10.0 mi WSW 13.8 mph - N/A   Unknown
4:55 PM 37.4 °F 29.3 °F 24.8 °F 60% 30.21 in 10.0 mi West 12.7 mph - N/A   Unknown
5:15 PM 39.2 °F 30.8 °F 24.8 °F 56% 30.21 in 10.0 mi West 15.0 mph 19.6 mph N/A   Unknown
5:35 PM 39.2 °F 30.2 °F 24.8 °F 56% 30.22 in 10.0 mi West 17.3 mph 21.9 mph N/A   Unknown
5:55 PM 39.2 °F 30.8 °F 26.6 °F 61% 30.22 in 10.0 mi West 15.0 mph 21.9 mph N/A   Unknown
6:15 PM 39.2 °F 31.2 °F 28.4 °F 65% 30.23 in 10.0 mi West 13.8 mph - N/A   Unknown
6:35 PM 37.4 °F 29.3 °F 28.4 °F 70% 30.22 in 10.0 mi West 12.7 mph - N/A   Unknown
6:55 PM 39.2 °F 30.8 °F 28.4 °F 65% 30.23 in 10.0 mi West 15.0 mph 20.7 mph N/A   Unknown
7:15 PM 39.2 °F 30.5 °F 28.4 °F 65% 30.23 in 10.0 mi West 16.1 mph - N/A   Unknown
7:35 PM 39.2 °F 31.2 °F 26.6 °F 61% 30.24 in 10.0 mi West 13.8 mph 20.7 mph N/A   Unknown
7:55 PM 39.2 °F 31.6 °F 26.6 °F 61% 30.24 in 10.0 mi West 12.7 mph 21.9 mph N/A   Unknown
8:15 PM 39.2 °F 32.0 °F 24.8 °F 56% 30.24 in 10.0 mi West 11.5 mph - N/A   Unknown
8:35 PM 39.2 °F 31.6 °F 26.6 °F 61% 30.24 in 10.0 mi West 12.7 mph 17.3 mph N/A   Unknown
8:55 PM 39.2 °F 30.8 °F 26.6 °F 61% 30.24 in 10.0 mi West 15.0 mph 18.4 mph N/A   Unknown
9:15 PM 39.2 °F 30.2 °F 26.6 °F 61% 30.23 in 10.0 mi West 17.3 mph 20.7 mph N/A   Unknown
9:35 PM 39.2 °F 29.8 °F 26.6 °F 61% 30.23 in 10.0 mi West 18.4 mph 24.2 mph N/A   Unknown
9:55 PM 39.2 °F 30.2 °F 26.6 °F 61% 30.23 in 10.0 mi West 17.3 mph 24.2 mph N/A   Unknown
10:15 PM 39.2 °F 31.2 °F 26.6 °F 61% 30.23 in 10.0 mi West 13.8 mph 23.0 mph N/A   Unknown
10:35 PM 39.2 °F 29.8 °F 26.6 °F 61% 30.23 in 10.0 mi West 18.4 mph - N/A   Unknown
10:55 PM 39.2 °F 30.2 °F 26.6 °F 61% 30.24 in 10.0 mi West 17.3 mph 23.0 mph N/A   Unknown
11:15 PM 39.2 °F 30.8 °F 26.6 °F 61% 30.24 in 10.0 mi West 15.0 mph 21.9 mph N/A   Unknown
11:35 PM 39.2 °F 30.8 °F 26.6 °F 61% 30.24 in 10.0 mi West 15.0 mph 20.7 mph N/A   Unknown
11:55 PM 39.2 °F 30.8 °F 26.6 °F 61% 30.25 in 10.0 mi West 15.0 mph 24.2 mph N/A   Unknown